Home > Weather > Pécs > Past weeks

Flag for Hungary Past Weather in Pécs, Hungary — Yesterday and Last 2 Weeks

Now
81 °F

Passing clouds.


Feels Like: 81 °F
Forecast: 57 / 87 °F
Wind: 3 mph from Southeast

Location: Pecs / Pogany

Current Time: Aug 27, 2016 at 7:06:09 PM

Latest Report: Aug 27, 2016 at 6:00 PM


Visibility: 37 mi

Pressure: 30.13 "Hg

Humidity: 46%

Dew Point: 58 °F

Location of PécsLocation

Past Weather in Pécs — Graph

°F

Pécs Temperature Yesterday

Maximum temperature yesterday: 81 °F (at 4:00 PM)
Minimum temperature yesterday: 61 °F (at 6:00 AM)
Average temperature yesterday: 72 °F

High & Low Weather Summary for the Past Weeks

 TemperatureHumidityPressure
High82 °F (Aug 27, 5:00 PM)99% (Aug 17, 11:00 AM)30.32 "Hg (Aug 17, 11:00 AM)
Low57 °F (Aug 14, 6:00 AM)35% (Aug 12, 6:00 PM)29.83 "Hg (Aug 17, 8:00 AM)
Average68 °F72%30.10 "Hg
* Reported Aug 12 5:00 PM — Aug 27 5:00 PM, Pécs, Weather by CustomWeather, © 2016

Note: Actual official high and low records may vary slightly from our data, if they occured in-between our weather recording intervals... More about our weather records

Advertising

Pécs Weather History for the Previous 24 Hours

Scroll right to see more
 ConditionsComfort  
Time TempWeatherWind HumidityBarometerVisibility
5:00 PM
Sat, Aug 27
82 °FPassing clouds.2 mph40%30.14 "Hg37 mi
4:00 PM81 °FScattered clouds.2 mph46%30.14 "Hg37 mi
3:00 PM82 °FScattered clouds.3 mph48%30.15 "Hg37 mi
2:00 PM81 °FScattered clouds.3 mph45%30.17 "Hg37 mi
1:00 PM81 °FScattered clouds.3 mph45%30.17 "Hg37 mi
12:00 PM80 °FPassing clouds.3 mph52%30.19 "Hg37 mi
11:00 AM78 °FPassing clouds.2 mph56%30.20 "Hg37 mi
9:00 AM71 °FSunny.2 mph67%30.20 "Hg31 mi
8:00 AM68 °FSunny.1 mph72%30.20 "Hg31 mi
5:00 AM64 °FMild.2 mph77%30.19 "HgN/A
4:00 AM64 °FMild.2 mph78%30.19 "HgN/A
3:00 AM64 °FMild.2 mph77%30.19 "HgN/A
2:00 AM66 °FMild.3 mph72%30.18 "HgN/A
1:00 AM69 °FMild.3 mph67%30.19 "HgN/A
12:00 AM70 °FMild.1 mph66%30.19 "HgN/A
11:00 PM
Fri, Aug 26
69 °FMild.2 mph70%30.19 "HgN/A
10:00 PM70 °FMild.2 mph72%30.18 "HgN/A
9:00 PM70 °FMild.2 mph71%30.17 "HgN/A
8:00 PM75 °FMild.1 mph57%30.15 "HgN/A
7:00 PM79 °FSunny.1 mph50%30.14 "Hg37 mi
Weather by CustomWeather, © 2016

See weather overviewHow to use our weather pages